Hourly Data Report for September 12, 2017

All times are specified in Local Standard Time (LST). Add 1 hour to adjust for Daylight Saving Time where and when it is observed.

SANDY LAKE A
ONTARIO

53°03'51.000" N
93°20'40.000" W
289.90 m
6017401
71587
ZSJ

Related Data

No related data is available for this station

Download Data

Hourly Data (September 2017)
Hourly Data Report for September 12, 2017
Temp Definition
°C
Dew Point Temp Definition
°C
Rel Hum Definition
%
Wind Dir Definition
10's deg

Wind Spd Definition
km/h
Visibility Definition
km
Stn Press Definition
kPa
Hmdx Definition


Wind Chill Definition


Weather Definition


TIME
00:00 Legend Double Dagger 15.6 6.4 54 27 15 16.1 97.31     LegendNANA
01:00 Legend Double Dagger 15.0 6.3 56 26 11 16.1 97.34     LegendNANA
02:00 Legend Double Dagger 14.7 6.4 57 25 11 16.1 97.32     LegendNANA
03:00 Legend Double Dagger 13.3 6.9 65 24 8 16.1 97.33     LegendNANA
04:00 Legend Double Dagger 11.6 6.7 72 23 8 16.1 97.32     LegendNANA
05:00 Legend Double Dagger 10.6 6.9 78   0 16.1 97.31     LegendNANA
06:00 Legend Double Dagger 8.4 6.9 90   0 16.1 97.29     LegendNANA
07:00 Legend Double Dagger 12.2 8.1 76 21 5 16.1 97.31     LegendNANA
08:00 Legend Double Dagger 15.1 8.5 65 LegendMM 5 16.1 97.28     LegendNANA
09:00 Legend Double Dagger 17.3 9.0 58 28 5 16.1 97.24     LegendNANA
10:00 Legend Double Dagger 18.8 9.1 53 LegendMM 4 16.1 97.25     LegendNANA
11:00 Legend Double Dagger 21.6 9.9 47 19 8 16.1 97.16     LegendNANA
12:00 Legend Double Dagger 23.4 9.8 42 16 8 16.1 97.13 25   LegendNANA
13:00 Legend Double Dagger 25.7 7.8 32 22 9 16.1 97.07 26   LegendNANA
14:00 Legend Double Dagger 26.7 6.5 27 26 11 16.1 97.01 27   LegendNANA
15:00 Legend Double Dagger 26.9 7.0 28 26 8 16.1 96.95 27   LegendNANA
16:00 Legend Double Dagger 26.7 8.0 30 26 8 16.1 96.92 27   LegendNANA
17:00 Legend Double Dagger 25.9 8.0 32 24 8 16.1 96.90 26   LegendNANA
18:00 Legend Double Dagger 23.5 9.4 40 24 5 16.1 96.90 25   LegendNANA
19:00 Legend Double Dagger 20.9 10.8 52 36 8 16.1 96.97     LegendNANA
20:00 Legend Double Dagger 17.9 9.6 58 36 18 16.1 97.08     LegendNANA
21:00 Legend Double Dagger 15.7 9.2 65 35 17 16.1 97.16     LegendNANA
22:00 Legend Double Dagger 13.6 7.5 66 1 13 16.1 97.28     LegendNANA
23:00 Legend Double Dagger 11.8 6.4 69 1 13 16.1 97.37     LegendNANA

Notes on Data Quality.

Legend

  • E = Estimated
  • M = Missing
  • NA = Not Available
  • ‡ = Partner data that is not subject to review by the National Climate Archives
Date modified: